RH
72 77 82 83 80 77 83 94 91 86 87 83 84 85 81 81 84 82 81 82 79 79 85 85 81 75 72 69 63 61 56 49 48 61 72 78 88 87 82 80 75 70 55 45 40 31 29 29 29 27 25 23 22 21 20 19 19 19 18 17 17 17 17 17 17 18 23 27 28 31 31 30 27 24 22 24 28 33 34 34 35 34 34 34 34 34 34 31 31 31 29 28 27 26 25 25 25
73 76 82 87 86 83 88 95 90 85 87 83 84 86 84 85 84 76 71 72 73 74 83 88 85 83 80 72 62 56 55 52 49 56 64 74 89 94 88 80 74 64 49 41 33 25 25 26 27 25 24 22 21 20 19 20 19 19 18 18 18 18 18 17 17 19 22 26 29 32 32 30 28 26 24 24 26 28 29 29 29 30 30 30 31 32 32 31 31 31 31 32 31 30 28 27 26
76 77 79 87 87 85 87 90 87 80 80 80 82 86 85 82 74 67 66 67 71 77 83 84 82 83 78 69 61 54 49 47 47 51 56 67 78 90 92 80 71 60 45 38 29 21 22 24 26 24 22 21 20 20 20 20 20 19 19 18 19 19 19 17 18 20 22 26 31 33 33 33 32 31 29 29 29 30 30 29 29 29 30 31 32 33 33 32 32 31 31 32 33 34 33 31 28
75 79 84 90 88 86 86 85 81 75 76 78 80 84 82 72 63 64 65 66 73 79 81 81 80 80 76 68 59 50 45 43 44 48 52 61 69 78 85 79 68 56 44 36 25 17 20 23 24 23 21 20 20 21 21 21 21 20 19 19 19 19 18 17 18 21 23 27 32 36 36 37 36 37 36 35 36 35 35 34 34 35 36 37 39 41 41 39 37 36 34 33 33 34 34 34 30
71 77 83 90 88 86 85 81 75 73 75 75 80 82 73 64 62 67 68 70 76 78 80 81 78 76 71 63 55 50 46 44 44 47 53 58 70 76 73 72 65 53 45 34 21 15 18 21 21 21 20 21 21 22 23 22 22 20 19 19 19 18 16 15 18 20 23 28 34 37 38 39 41 41 39 39 38 37 37 36 37 38 40 43 47 49 48 45 41 40 39 38 37 35 35 34 32
68 73 79 86 88 85 82 79 76 76 73 72 80 78 68 65 64 67 71 73 77 78 79 78 74 68 63 57 55 54 50 50 46 45 55 56 63 74 65 62 61 51 44 31 18 14 16 19 19 19 19 21 22 24 24 24 22 20 19 19 18 16 14 15 17 21 25 30 34 36 37 39 41 43 44 42 41 40 39 39 39 40 43 48 52 52 51 47 44 43 43 43 42 40 39 38 35
70 77 81 82 84 86 83 81 80 79 77 72 73 73 71 69 64 64 70 70 72 75 75 79 77 65 57 56 56 55 52 51 49 45 55 56 51 64 61 54 55 48 39 26 16 14 16 18 18 19 20 22 25 26 26 25 22 19 19 18 16 14 13 15 18 22 27 31 34 34 36 40 44 47 50 48 47 46 42 41 41 42 44 47 50 53 51 47 44 43 44 44 44 44 44 43 40
72 79 83 82 81 82 83 83 84 84 82 74 69 69 70 68 61 60 67 67 67 69 71 78 77 63 55 54 53 53 52 49 50 47 50 55 45 51 56 46 45 41 30 22 15 14 17 18 19 20 22 26 28 29 28 24 19 17 17 16 14 13 14 16 20 25 29 33 35 35 38 44 47 46 47 47 47 45 42 40 39 41 42 43 47 50 49 45 44 43 45 46 46 46 47 46 42
68 73 82 85 78 76 79 82 84 85 81 73 70 68 66 65 59 56 60 64 65 68 71 72 66 59 55 53 52 50 52 48 50 49 45 52 43 39 47 38 34 29 20 17 14 16 18 18 20 22 25 28 30 30 28 22 15 13 14 14 13 13 15 18 23 28 32 34 36 37 40 44 42 41 41 42 41 38 37 38 37 38 37 34 33 35 35 35 36 37 40 43 46 49 51 49 42
66 71 82 85 75 71 76 80 80 82 79 74 74 70 64 61 59 53 53 59 61 65 69 69 63 60 57 54 54 52 53 47 45 46 40 44 39 30 36 32 26 20 14 14 15 17 18 20 22 24 28 30 32 32 27 19 12 11 12 13 12 13 16 20 25 30 34 35 37 39 38 38 35 33 34 34 33 31 27 27 26 25 22 17 16 18 18 19 20 21 24 29 34 40 47 51 48
68 74 80 78 73 71 76 83 82 80 78 76 76 72 65 61 59 52 51 58 60 64 67 66 64 61 59 56 57 57 54 45 39 39 35 35 32 27 29 27 22 16 13 14 16 18 19 21 24 26 29 31 34 32 26 16 10 10 11 12 12 14 17 22 27 31 36 38 39 37 31 30 28 26 27 25 21 20 17 15 13 11 11 9 9 9 8 10 12 13 14 19 26 32 37 44 52
73 79 74 72 74 69 71 85 88 83 78 75 75 71 64 60 58 53 52 55 58 64 66 65 63 60 60 58 58 59 54 43 36 34 31 30 28 27 27 24 19 14 13 16 18 19 20 22 24 27 29 32 34 33 25 14 10 9 9 11 11 15 19 23 28 32 36 39 38 32 23 21 21 17 17 16 11 10 10 8 7 9 13 10 7 7 7 8 9 11 11 16 23 28 32 38 46
77 81 74 74 75 67 73 88 90 85 79 73 71 70 66 61 58 55 53 52 55 62 66 66 63 59 59 61 61 59 53 43 33 31 31 30 28 27 27 23 17 12 14 17 19 20 21 22 24 26 28 32 34 32 24 14 10 9 9 11 12 16 20 24 29 33 36 37 32 24 17 13 12 9 8 8 7 7 8 9 9 10 13 10 8 7 8 8 9 10 11 17 22 24 27 34 42
75 82 78 79 77 72 82 89 88 87 81 73 68 68 68 65 61 57 53 52 58 65 68 67 63 59 59 62 60 56 52 41 30 30 34 32 28 26 26 24 17 13 15 18 20 21 21 22 24 25 27 31 34 32 25 15 10 10 10 11 13 16 20 25 29 32 35 32 24 17 13 10 8 7 7 6 8 8 11 17 17 15 15 12 10 9 8 9 9 11 13 19 22 24 27 30 36
77 86 84 86 85 82 88 89 89 85 78 74 70 68 66 66 66 61 56 55 59 65 68 67 63 61 62 65 61 57 51 37 29 32 37 35 30 28 28 27 19 14 16 19 21 22 22 22 23 25 27 30 33 32 26 18 13 12 12 13 15 18 22 26 28 32 31 25 18 14 10 8 7 6 6 7 9 10 17 26 24 23 21 13 10 9 9 9 9 10 14 19 21 26 31 30 29
79 92 92 91 89 87 89 89 91 84 75 74 72 69 63 63 66 64 63 62 61 62 66 65 62 60 62 66 63 62 53 35 30 34 38 37 33 31 32 31 21 15 17 19 21 23 23 22 23 24 27 30 31 31 29 22 18 16 16 18 18 19 23 25 28 30 25 19 14 11 8 7 5 5 6 7 10 11 21 28 27 30 27 19 15 11 9 8 8 8 11 15 17 21 27 28 25
72 87 92 91 87 85 87 87 90 88 82 77 74 71 64 61 60 61 64 65 64 63 64 61 60 61 60 64 63 63 54 36 31 35 40 37 32 33 35 31 24 19 17 19 21 22 23 22 22 23 26 29 27 28 30 27 23 22 21 22 21 22 24 24 27 25 18 14 10 7 6 6 5 5 6 7 11 13 19 23 24 28 27 27 25 19 15 13 10 10 10 9 11 15 18 20 19
63 74 82 87 87 83 85 87 88 89 88 82 78 76 67 62 58 57 60 60 60 60 61 58 60 61 58 62 63 63 56 40 33 34 37 33 30 34 34 31 27 22 18 18 20 22 23 21 21 24 26 26 23 25 30 31 29 28 27 26 24 22 23 23 23 18 12 9 6 6 5 5 6 7 8 9 14 17 19 19 19 21 25 32 32 27 23 19 14 15 16 12 9 10 11 11 13
57 65 71 80 83 81 85 88 87 88 88 82 77 77 71 65 60 58 58 55 51 50 53 54 55 54 56 61 61 63 57 43 35 31 30 27 27 31 32 30 28 24 18 17 19 22 22 20 21 24 25 23 20 23 29 32 32 31 31 28 23 20 20 20 17 12 7 6 5 6 5 6 9 11 13 14 18 19 19 18 17 18 24 29 30 27 23 19 15 13 15 13 10 9 9 9 9
53 60 67 79 83 78 83 87 87 87 89 84 77 75 69 65 63 61 60 55 48 44 43 45 45 45 52 59 60 63 56 42 35 29 27 26 23 25 27 26 25 23 18 16 17 21 21 19 21 24 24 20 17 22 27 30 31 31 29 24 18 17 17 15 11 7 5 5 5 6 7 12 17 19 19 18 20 23 25 26 25 23 23 23 23 20 18 16 12 9 11 10 9 9 9 9 8
52 58 63 76 81 73 80 88 84 84 91 90 80 73 67 64 64 65 64 55 50 47 42 40 41 45 52 54 55 61 56 42 35 30 28 27 22 20 19 18 22 22 19 17 16 20 19 17 21 24 23 19 15 19 23 26 27 26 21 16 14 14 13 9 7 5 4 5 6 9 13 19 24 25 24 23 24 27 30 34 35 31 25 23 19 16 15 14 11 7 7 7 8 9 9 9 9
50 54 52 65 74 68 73 82 82 84 90 89 81 74 69 65 61 62 63 59 59 53 45 40 38 44 50 52 49 53 56 47 36 30 30 30 24 19 15 15 22 22 19 17 16 20 17 16 21 23 22 17 15 17 19 21 20 17 14 13 12 11 8 6 4 4 6 9 11 16 20 24 25 25 25 26 25 26 31 37 41 35 28 28 26 23 19 15 11 8 7 7 8 8 9 9 9
49 49 47 58 69 67 65 69 79 88 87 81 79 74 71 67 61 59 57 62 70 63 53 45 40 40 44 49 45 44 50 49 40 33 32 33 29 22 15 15 19 19 19 16 15 20 17 15 21 23 21 15 13 15 15 16 16 13 13 12 9 7 5 4 5 8 13 16 21 26 28 27 24 23 24 25 24 26 33 38 39 33 29 30 33 34 30 20 11 7 7 6 7 8 8 9 9
45 43 46 54 64 67 61 61 77 91 88 81 76 71 70 69 67 63 56 63 76 72 63 52 45 41 37 40 41 39 43 45 44 40 38 38 33 26 19 17 15 15 18 15 15 20 16 15 21 22 18 13 10 11 12 14 15 13 12 9 6 4 4 6 9 16 21 25 29 32 31 27 23 22 23 24 24 28 32 34 34 33 31 29 29 31 31 26 19 12 8 6 6 7 8 8 9
43 41 45 49 57 63 58 60 73 85 90 86 77 68 65 69 74 72 61 62 71 70 67 57 45 39 32 33 39 39 40 45 51 50 45 43 37 29 24 20 15 13 15 14 15 20 15 14 20 20 14 11 8 8 11 13 13 11 8 6 6 6 7 11 16 23 29 31 32 31 29 26 24 23 24 24 25 28 31 32 33 34 37 38 34 27 27 31 30 24 16 8 5 7 7 8 8
53 50 44 42 48 53 52 57 62 71 82 81 75 70 64 67 75 76 69 69 72 67 67 60 43 34 28 29 35 36 37 44 52 54 49 46 41 32 27 24 16 12 12 12 16 19 15 11 17 17 11 8 6 6 9 10 10 8 7 9 10 10 13 18 23 29 34 34 31 29 27 26 25 24 24 25 27 30 33 34 34 34 38 43 42 35 34 41 41 34 23 11 6 6 7 7 8
63 55 43 41 41 40 43 49 48 54 63 62 70 74 64 61 64 69 71 74 78 71 69 63 47 38 28 24 31 32 32 36 42 49 51 48 44 36 30 26 19 13 12 12 16 19 14 8 12 14 9 6 5 5 7 10 11 12 14 16 16 15 20 24 27 33 38 36 30 26 26 25 24 24 25 28 31 34 34 35 36 36 37 39 42 41 40 44 43 36 26 17 11 7 6 7 7
62 53 43 43 40 34 35 42 42 45 52 54 68 75 63 59 59 63 70 74 79 76 70 64 53 43 29 23 28 29 28 32 39 46 49 46 44 40 33 28 21 14 14 14 16 19 15 6 7 10 8 5 4 5 6 9 12 13 16 17 17 18 22 24 26 33 37 32 24 21 22 22 22 25 28 31 33 34 35 36 34 32 36 39 42 44 42 41 38 31 27 25 22 15 9 7 7
59 50 45 45 40 35 35 39 39 42 51 50 58 68 63 59 56 59 69 75 79 80 73 67 62 46 30 26 29 30 28 32 41 43 41 39 40 41 36 31 25 15 14 15 16 19 15 6 4 7 8 5 4 5 6 8 9 9 11 12 14 15 17 18 20 29 30 22 18 19 20 20 22 26 30 32 33 35 35 34 30 26 33 41 43 44 44 44 40 34 32 32 32 28 20 12 7
53 47 42 44 38 34 39 41 39 43 51 46 47 66 69 56 50 58 71 76 81 85 80 74 67 46 30 33 36 37 36 33 35 34 31 36 39 41 38 34 30 19 13 15 17 19 15 7 4 5 7 5 3 5 6 7 8 8 8 8 9 9 10 12 17 24 23 17 17 19 21 22 25 26 29 32 33 35 32 28 25 26 33 40 41 42 43 44 43 41 38 36 36 38 37 28 15
43 43 35 35 31 32 41 39 36 41 49 46 45 66 73 57 51 59 70 79 84 87 85 78 68 47 33 39 43 43 42 37 35 30 25 27 32 40 41 37 34 23 14 15 17 19 16 8 4 5 6 6 4 5 6 6 7 7 7 6 6 7 7 9 15 19 17 15 18 20 23 26 27 27 29 32 33 33 27 23 24 29 35 36 35 37 40 43 44 43 41 39 38 40 43 41 28
26 30 24 23 23 32 41 33 30 37 43 43 43 62 69 55 52 56 61 75 82 83 84 80 72 58 45 42 44 45 41 36 34 32 27 21 22 34 41 38 36 28 16 14 17 19 16 9 5 5 5 6 4 4 5 6 7 7 6 6 6 6 6 9 13 13 13 14 17 19 22 26 27 28 30 32 33 30 23 22 27 32 33 32 32 35 39 43 43 43 42 41 40 40 43 44 37
10 14 13 14 17 30 37 27 26 34 39 38 41 62 70 55 51 54 59 71 78 80 84 81 72 69 64 53 51 50 43 37 31 29 29 22 18 25 37 39 36 33 21 13 16 20 18 10 6 5 5 5 4 4 5 6 7 7 6 5 5 6 6 8 9 10 11 13 13 15 20 24 26 26 28 30 31 25 20 23 29 31 30 29 32 35 39 42 42 43 42 41 41 42 43 43 41
4 5 6 8 11 22 28 23 25 30 32 33 37 58 74 64 52 52 62 73 79 83 85 82 71 71 74 65 62 60 53 46 33 25 26 23 18 18 29 37 36 35 27 15 13 19 19 12 7 5 4 5 4 4 5 6 7 6 6 5 5 5 6 7 8 8 10 10 11 13 17 21 23 24 27 29 27 20 19 23 26 26 26 25 27 30 34 37 40 42 43 41 40 41 42 40 39
2 3 3 4 6 11 17 20 24 25 25 29 30 45 69 72 55 48 58 69 78 86 85 79 71 72 77 74 72 66 60 56 40 27 25 23 20 16 19 29 34 36 33 21 12 15 19 13 8 6 4 4 5 5 5 6 7 6 6 5 5 6 6 7 7 8 9 9 10 11 14 18 22 25 27 27 23 17 18 20 21 20 18 18 18 20 21 24 28 32 35 36 36 38 38 37 36
2 2 2 3 4 5 11 19 25 25 24 23 24 38 65 74 60 47 53 65 78 85 81 75 71 72 77 79 78 69 63 63 50 33 26 23 21 18 14 19 29 34 34 27 14 12 18 16 10 6 4 4 5 5 5 6 6 6 5 5 6 6 6 7 7 8 8 8 9 10 13 18 22 24 25 26 21 15 16 17 16 14 13 12 12 12 13 13 14 16 18 20 21 22 23 24 24
2 2 2 2 3 3 9 21 32 33 24 19 20 35 58 68 60 50 52 62 73 78 75 72 72 76 79 80 81 74 64 63 55 38 27 24 22 19 14 12 19 28 32 28 18 12 15 17 13 7 4 4 5 7 6 6 7 6 5 5 6 6 6 7 7 7 7 8 9 10 13 17 19 22 24 24 19 14 14 14 13 12 11 11 11 11 10 10 10 10 10 9 9 9 9 9 11
2 2 2 2 2 3 6 18 36 38 26 20 19 27 46 57 54 51 53 56 60 68 73 74 77 85 90 86 85 78 65 63 61 45 29 24 22 20 16 10 11 21 30 30 22 14 13 17 15 7 5 4 5 7 7 8 7 5 4 4 5 6 6 6 6 7 7 8 9 10 13 15 17 20 22 21 16 12 12 12 11 11 11 11 11 11 11 10 10 9 9 9 9 7 6 6 8
3 2 2 3 2 3 4 12 32 39 27 21 21 22 35 49 48 47 52 53 56 66 74 81 86 92 96 94 91 82 71 69 65 52 34 24 23 20 16 11 8 15 26 28 22 15 13 16 15 8 5 5 5 7 9 9 7 4 4 4 5 5 5 6 6 6 7 8 9 10 11 13 16 19 20 18 14 10 11 11 10 11 11 11 11 11 11 11 10 10 9 9 9 9 8 7 7
3 2 2 3 2 3 3 6 25 36 26 22 27 22 25 42 44 38 46 54 60 69 78 83 84 87 93 97 97 90 80 71 62 53 38 26 24 21 17 13 7 10 19 23 19 14 13 14 15 10 6 5 5 6 9 9 6 3 4 5 5 5 5 6 6 6 7 8 8 9 10 12 14 15 16 16 13 9 8 9 10 10 10 10 11 11 11 10 10 10 9 9 9 9 9 8 7
3 3 2 2 2 3 3 5 17 29 23 20 31 28 19 31 36 30 40 54 62 68 74 76 73 74 83 89 90 87 80 69 57 51 42 31 27 23 18 13 6 6 15 21 18 14 13 13 15 12 7 6 6 6 9 9 5 3 5 6 6 6 6 6 6 6 6 8 8 9 10 11 12 12 13 14 14 10 7 7 8 9 9 10 10 11 11 11 11 11 10 10 9 9 9 8 7
3 3 2 2 3 3 3 4 10 19 19 17 29 30 17 23 27 23 34 50 58 62 63 66 66 63 66 69 72 75 75 68 56 50 43 34 28 23 19 15 8 5 11 18 17 14 13 12 14 13 7 7 7 6 9 9 5 4 6 7 7 8 7 7 6 6 6 7 8 8 9 10 10 10 11 11 12 11 8 7 7 7 8 9 10 10 11 12 13 13 13 13 12 12 12 11 10
4 3 3 2 3 2 3 4 6 11 13 14 23 25 18 20 21 19 27 40 52 58 57 62 63 56 51 54 64 75 78 70 59 53 46 39 35 28 20 17 13 6 9 16 15 12 12 11 12 12 8 7 7 7 9 9 6 5 6 7 8 9 8 7 6 6 6 6 7 8 8 9 8 9 9 9 9 10 9 8 8 7 7 8 9 10 11 12 13 14 15 15 15 16 16 17 16
6 5 4 3 3 3 3 4 4 6 8 11 18 20 17 16 15 15 19 27 41 49 52 59 59 50 47 51 62 77 83 77 65 56 50 45 43 36 23 17 15 8 5 12 14 11 11 11 11 11 8 7 7 8 9 8 6 7 8 8 8 9 8 7 6 5 6 6 7 8 8 8 7 8 8 8 8 9 8 8 8 8 7 7 8 8 10 11 12 14 15 15 16 16 17 18 19
9 6 5 4 3 3 3 3 4 5 5 8 14 17 13 7 10 14 12 14 24 33 44 54 55 48 48 52 60 70 78 82 75 60 51 46 44 44 34 20 16 11 4 7 13 11 9 11 11 9 8 6 7 9 9 7 7 8 9 8 8 7 7 6 6 5 5 6 6 7 8 7 7 7 8 8 9 8 8 8 8 8 8 8 8 8 9 10 11 12 13 14 15 15 16 18 19
11 9 7 5 4 3 4 4 4 4 4 4 9 14 10 4 7 11 7 6 8 15 33 50 55 53 54 59 65 68 69 77 81 69 54 47 42 42 39 25 16 15 9 6 9 9 8 9 10 9 7 6 6 8 8 6 7 9 8 8 7 6 6 6 6 6 6 6 6 7 8 7 7 7 7 7 7 8 9 8 8 8 7 7 8 8 8 9 10 10 11 12 13 13 15 16 18
14 11 9 7 6 4 4 4 4 4 3 2 6 10 8 3 5 6 3 4 5 8 23 41 54 58 59 64 70 69 64 69 82 77 59 49 41 35 32 25 19 18 14 9 8 8 8 8 9 9 6 5 6 7 6 6 7 8 7 7 7 6 6 7 7 7 6 6 6 6 7 7 6 6 6 6 7 8 9 9 9 9 8 8 8 8 8 9 9 9 9 10 11 12 13 14 16
15 12 11 9 7 4 4 4 3 3 2 1 3 6 5 2 3 5 2 3 8 12 20 34 51 59 60 64 68 66 61 63 77 81 65 52 45 34 29 28 24 20 17 13 10 8 8 9 9 9 6 5 6 6 5 5 7 7 7 7 7 7 6 7 8 7 6 6 6 6 7 7 7 6 6 6 6 7 9 10 11 11 11 10 9 9 9 9 9 9 9 9 10 10 11 13 14
18 12 12 10 8 5 4 4 3 2 2 2 2 3 3 1 2 5 4 3 8 16 26 36 50 61 63 66 71 68 62 58 66 78 70 54 48 39 31 31 28 22 19 17 13 10 9 10 10 8 6 5 5 5 4 5 6 6 6 6 7 7 7 6 7 7 6 6 5 6 6 6 6 6 6 6 6 7 9 11 12 13 14 14 14 13 12 11 11 10 9 9 9 9 10 11 13
20 14 13 10 8 5 3 3 2 2 2 2 2 2 2 1 2 5 4 3 7 15 31 42 49 57 60 63 67 66 63 57 57 72 72 57 52 43 28 29 31 26 22 20 16 12 8 9 11 10 7 5 4 4 4 5 6 5 5 5 5 7 7 6 6 6 6 6 5 6 6 6 6 5 6 6 6 8 10 12 15 17 19 20 21 21 20 20 19 18 16 15 13 12 10 10 11
26 16 14 12 9 6 4 3 2 2 2 2 2 2 2 1 1 4 5 5 8 14 31 46 49 51 54 56 58 57 61 60 54 66 73 60 56 49 30 25 30 29 25 21 19 15 9 7 10 11 8 5 4 4 4 5 4 3 4 4 4 6 7 7 7 6 6 5 5 5 5 5 5 5 6 6 8 10 12 15 18 19 21 21 22 23 23 23 24 25 25 25 25 23 20 18 16
32 21 17 13 10 8 6 4 3 3 2 2 2 1 2 2 1 3 5 6 8 12 26 42 46 48 50 49 48 45 51 58 56 62 69 62 59 55 37 26 26 28 26 22 20 17 11 7 8 11 9 6 4 4 4 4 3 3 3 3 3 4 6 7 7 6 6 6 5 5 5 5 5 5 6 7 9 11 14 17 19 19 19 19 18 18 18 18 20 21 24 27 30 32 33 32 31
35 26 18 12 12 12 10 6 4 4 3 2 2 2 1 2 1 2 4 5 6 10 22 32 35 42 47 43 40 37 38 48 54 59 62 59 61 61 46 29 24 26 26 23 21 18 13 8 8 11 10 6 4 4 4 4 3 3 2 2 3 3 4 6 6 6 6 6 5 5 5 5 5 6 7 9 11 13 16 18 18 18 16 15 13 12 12 12 12 14 16 19 22 27 31 34 37
42 30 18 14 17 16 12 9 6 4 4 2 2 3 2 2 2 2 4 5 5 10 19 26 29 34 38 38 36 32 30 38 51 59 60 58 61 65 55 36 26 27 27 26 23 17 12 9 8 11 10 7 5 4 4 4 3 3 3 3 3 3 4 4 5 6 5 5 5 4 5 5 5 7 8 11 14 16 18 18 17 16 14 12 10 8 8 8 8 9 9 10 14 18 21 26 32
48 33 22 21 19 15 11 9 8 5 4 4 2 3 2 2 2 2 3 5 6 9 15 22 29 29 26 27 28 27 28 32 43 53 54 52 58 65 60 44 30 27 28 28 24 16 11 9 9 10 10 7 5 4 3 3 3 3 3 4 3 3 4 4 4 5 5 4 5 4 4 5 7 8 10 14 16 18 18 17 15 13 11 10 8 6 6 6 7 8 9 9 10 12 14 18 23
49 41 32 27 19 14 13 9 8 6 5 4 3 3 3 2 2 2 2 4 6 10 12 15 23 25 20 21 23 26 29 29 36 46 46 48 57 64 63 51 35 30 31 29 23 15 10 9 9 11 10 8 5 3 3 3 3 3 4 4 4 3 3 4 4 4 4 4 4 4 5 6 8 10 13 15 16 17 16 14 13 10 9 7 6 5 6 7 8 10 13 14 13 13 15 17 21
49 47 39 31 21 16 17 14 10 8 6 5 4 3 3 2 3 3 2 4 6 9 9 10 17 21 20 21 22 25 29 32 43 51 48 51 60 64 63 55 41 35 33 28 22 15 11 10 9 10 10 9 6 4 3 3 3 4 4 4 4 4 4 4 3 4 4 4 4 4 5 7 9 11 14 15 15 15 13 11 10 8 6 5 5 7 9 11 13 16 18 20 19 19 20 21 22
51 53 44 34 25 20 20 17 12 10 7 6 5 3 3 3 3 3 2 3 5 8 8 8 12 17 20 21 21 25 28 33 45 52 50 52 59 64 64 57 45 36 31 26 21 15 11 9 9 10 10 10 9 7 5 4 4 3 4 4 4 4 4 4 3 3 4 4 4 4 5 7 9 11 13 14 13 12 11 9 7 5 5 7 10 14 18 21 24 25 25 24 24 23 23 23 23
Wind_Speed
5 6 6 7 7 7 5 2 1 2 3 5 6 6 8 8 8 8 7 8 8 8 8 7 5 4 6 7 7 7 5 5 8 11 11 9 7 5 5 5 5 5 5 5 6 6 6 7 7 6 6 7 8 9 9 9 9 9 9 9 10 10 11 11 11 11 11 11 11 11 11 11 11 10 10 9 9 8 8 7 6 6 6 6 6 6 6 6 6 5 5 5 5 5 5 5 5
5 7 6 6 6 6 4 1 2 4 6 7 7 6 7 8 8 7 7 7 7 7 8 8 7 7 7 6 6 7 7 6 7 10 10 9 9 6 4 5 5 5 4 5 5 5 6 7 6 6 6 7 8 8 9 9 9 9 8 9 9 10 10 10 11 11 11 11 11 10 11 11 11 10 9 9 8 8 7 7 6 6 7 7 7 6 6 6 6 5 5 5 5 5 5 5 5
7 8 6 6 5 5 4 2 2 5 7 7 8 8 8 9 8 7 6 6 6 7 10 10 9 9 7 6 6 7 7 7 7 8 7 8 9 7 4 5 5 5 4 5 4 5 6 6 6 6 6 7 7 8 8 8 8 8 8 9 9 10 10 10 10 10 11 11 10 10 11 11 11 10 10 9 8 8 8 7 7 7 7 7 7 6 6 6 6 5 5 5 5 5 5 6 6
6 8 6 6 5 5 5 4 4 5 7 8 8 9 10 9 8 7 6 6 7 8 10 10 10 9 7 6 6 6 6 6 6 5 4 5 7 6 6 6 5 5 4 4 4 4 6 6 7 6 7 7 7 8 7 7 7 7 8 9 9 10 10 10 10 10 11 11 10 10 11 12 12 11 10 9 9 9 9 8 8 8 8 8 7 7 6 6 6 6 6 6 5 5 6 6 6
4 7 7 6 7 7 7 7 5 5 7 8 9 11 12 10 8 8 7 6 7 9 10 10 10 9 8 6 6 5 4 3 3 4 3 4 6 6 7 8 6 5 3 3 4 4 6 7 7 7 7 7 7 8 7 7 7 8 8 9 9 10 11 11 11 11 11 11 10 11 12 12 12 11 11 10 10 9 9 9 9 9 9 8 8 7 7 6 6 7 7 7 6 6 7 7 7
4 5 6 6 7 9 9 8 6 5 7 8 10 12 12 10 9 8 8 8 9 9 9 9 7 8 8 7 6 4 2 1 1 2 3 3 6 7 7 9 7 5 4 3 4 5 6 7 8 8 8 8 8 8 8 8 8 8 9 9 10 11 11 12 12 12 11 11 11 11 12 12 12 12 11 11 10 10 9 9 9 8 8 8 7 7 7 7 7 8 8 8 8 7 8 9 9
6 6 7 7 7 8 8 8 7 6 7 8 9 10 10 9 8 8 8 8 9 10 9 8 6 6 7 7 6 4 2 1 3 2 3 2 5 8 7 8 8 5 4 4 5 5 6 8 8 8 8 8 8 8 8 9 9 10 11 11 12 12 12 12 12 12 11 11 11 11 12 12 12 12 11 11 10 10 10 9 9 8 8 8 7 7 7 8 9 9 9 9 9 9 9 9 9
8 7 7 8 7 8 8 8 7 6 7 8 9 9 10 9 8 8 9 9 9 9 9 9 8 7 6 6 5 4 2 2 2 3 2 2 3 8 8 7 8 6 4 4 5 6 7 8 8 8 8 8 8 8 8 9 10 11 12 13 13 13 14 13 12 12 11 11 12 12 12 12 12 12 12 11 11 11 10 10 9 9 8 8 8 8 8 9 10 10 10 10 9 9 9 9 9
7 6 6 8 7 7 8 7 7 8 8 8 8 8 9 9 8 8 9 10 10 9 9 9 8 7 5 4 4 4 3 2 2 2 2 2 3 7 8 7 8 6 6 6 6 7 7 8 8 8 8 8 8 8 8 9 10 11 13 14 14 14 14 14 13 12 11 11 12 12 12 12 12 12 12 13 13 12 12 11 10 10 10 10 10 10 10 10 11 11 11 10 10 9 9 9 10
7 6 7 8 7 6 5 6 7 9 9 7 7 8 8 8 8 8 8 9 10 11 11 10 8 6 4 4 4 5 4 2 3 2 3 2 2 6 8 6 6 6 7 7 7 7 8 8 8 8 7 8 8 8 8 9 10 12 13 15 15 15 15 14 13 12 12 12 12 12 12 13 13 13 14 14 14 13 13 13 12 12 12 12 13 13 13 13 13 13 13 12 11 10 10 9 9
7 8 8 8 7 6 5 5 6 8 7 6 7 8 7 7 8 8 8 9 10 11 12 12 10 8 6 4 5 6 6 4 6 4 4 3 1 5 7 6 6 5 6 7 8 8 8 9 9 8 7 7 8 8 9 9 10 12 14 15 15 15 14 14 13 12 11 12 12 12 13 14 15 15 15 15 15 15 14 14 14 14 14 14 14 14 14 14 14 14 14 14 14 13 11 10 9
9 9 8 8 7 6 6 6 6 6 6 7 7 7 6 7 7 7 8 9 10 11 11 10 10 10 8 5 5 7 7 6 7 5 5 3 1 4 6 6 7 6 6 6 7 8 8 8 9 8 7 8 8 8 9 9 11 12 13 14 15 14 14 13 12 12 11 12 12 12 14 16 16 16 16 15 15 15 15 15 14 14 14 14 14 14 14 13 13 13 14 14 14 15 14 12 10
9 10 9 8 7 6 7 7 7 7 7 8 7 6 7 7 7 7 7 7 8 10 10 9 9 8 8 6 5 6 8 7 7 6 6 3 2 3 6 6 7 7 6 6 6 7 8 8 8 8 8 8 9 9 9 10 11 12 13 14 14 14 13 13 12 12 12 12 12 13 15 17 17 16 16 15 15 14 14 14 14 14 14 14 14 14 14 13 13 13 13 14 14 15 15 15 13
8 9 9 8 8 8 10 9 8 9 7 6 7 7 8 8 7 7 7 7 8 9 8 8 7 6 5 5 4 5 7 7 7 6 5 4 3 3 5 5 6 7 7 6 5 6 7 7 7 7 7 8 9 9 10 10 11 12 13 14 14 13 13 12 12 12 12 12 13 15 16 17 17 16 14 14 14 13 13 14 14 14 14 14 14 14 14 14 13 13 13 13 14 15 16 16 15
8 8 9 9 9 11 12 10 10 9 7 6 6 7 8 8 8 8 7 7 8 9 9 8 7 4 3 2 2 2 6 8 8 7 4 4 2 4 4 5 6 7 7 6 5 6 6 6 6 6 7 8 8 9 10 11 11 12 12 13 13 13 12 12 12 13 13 13 14 16 16 16 16 15 14 13 13 13 13 13 14 14 13 14 14 14 14 14 13 13 13 14 14 15 16 16 16
10 10 9 9 11 12 11 10 10 8 7 7 7 8 8 8 9 8 8 7 7 8 9 7 6 5 5 3 3 3 4 7 9 7 4 1 2 4 5 5 5 6 6 6 5 5 6 6 6 6 7 8 8 9 10 11 11 12 12 13 13 12 12 12 13 13 14 14 15 16 16 15 15 15 14 13 13 12 12 13 13 13 12 13 13 13 14 14 14 14 14 14 14 14 15 15 15
13 12 10 9 11 11 10 10 11 9 7 8 8 8 8 9 10 9 8 7 7 8 8 7 5 6 6 5 5 5 3 5 8 8 5 2 3 5 6 6 6 6 6 6 5 5 6 6 5 6 7 8 8 9 10 11 11 11 12 12 12 12 13 13 13 14 15 15 16 16 15 15 15 15 15 14 13 12 12 12 12 11 12 12 12 13 13 13 14 15 15 15 15 14 14 14 14
15 14 12 10 10 10 10 11 10 9 9 8 9 9 8 8 8 8 8 9 10 9 8 7 7 8 7 6 6 7 4 4 7 8 5 3 3 4 6 6 6 6 6 6 6 6 6 6 5 6 7 7 7 9 11 11 11 11 11 12 12 13 13 14 14 15 16 16 16 16 15 15 15 15 15 14 13 12 11 12 12 11 11 12 11 12 12 13 13 14 15 15 14 15 14 14 14
17 16 14 12 12 11 12 12 10 9 10 9 11 12 10 8 7 7 8 9 11 11 10 10 10 10 9 8 8 9 5 4 7 7 5 3 3 3 4 6 6 6 6 6 7 7 6 6 6 6 6 7 7 9 10 11 11 11 11 11 12 14 15 15 15 16 17 16 16 16 15 15 15 14 14 13 12 11 11 12 12 12 11 11 11 11 11 12 12 13 14 14 14 14 14 14 13
17 16 15 14 14 13 14 14 10 10 9 8 11 13 11 9 7 7 8 9 10 11 11 10 10 9 9 9 10 10 7 5 7 7 5 4 4 3 3 4 5 6 6 5 6 7 7 6 6 6 6 6 7 9 11 11 11 12 12 13 14 16 17 17 17 17 17 16 16 16 15 14 13 13 13 12 12 11 11 11 12 12 12 11 11 11 11 11 11 12 13 13 13 13 13 13 13
17 16 16 16 15 15 15 14 11 10 10 10 11 12 12 11 9 8 8 8 8 8 9 9 8 9 9 10 10 11 9 8 8 7 5 4 4 4 4 3 3 5 6 5 5 7 7 7 7 7 6 6 7 9 11 12 12 13 14 16 17 18 18 18 18 17 17 17 16 16 15 13 12 11 11 11 11 11 11 11 11 11 12 11 11 10 10 10 11 12 12 12 12 12 13 13 13
18 18 17 17 16 15 15 15 12 11 12 13 12 11 11 12 11 10 9 8 6 7 8 8 8 9 9 9 8 10 11 10 9 8 6 4 4 4 4 5 5 5 6 5 5 6 6 7 8 7 7 6 7 9 11 12 13 15 17 19 19 19 19 19 18 17 17 16 16 15 14 12 11 10 10 10 11 11 11 10 10 11 12 11 11 10 10 10 10 11 11 11 11 11 12 13 12
19 18 17 17 17 16 15 15 13 13 13 12 13 13 13 12 11 10 10 8 7 7 6 6 7 9 10 9 8 9 11 11 11 9 8 6 5 4 4 5 6 6 7 6 6 6 6 7 8 8 7 7 8 10 12 14 16 18 19 20 20 20 20 19 18 17 16 16 15 14 12 11 10 9 9 10 11 11 11 10 10 10 11 11 11 10 10 9 9 10 10 10 10 10 11 12 12
20 18 17 18 18 17 16 15 15 16 14 11 12 14 15 13 11 10 9 9 9 8 7 7 8 9 9 8 8 9 9 10 11 10 8 6 4 4 4 4 5 7 8 7 8 7 7 7 8 8 8 8 10 11 14 17 19 20 21 21 20 20 19 19 18 17 16 15 14 12 11 10 9 9 9 10 11 11 11 10 10 10 10 10 11 10 10 10 9 9 9 9 10 9 10 11 12
21 20 20 20 20 20 18 17 17 19 16 13 13 14 14 13 11 11 10 9 9 9 8 8 9 8 7 7 8 9 8 8 11 11 9 7 5 5 5 5 5 7 8 8 9 8 7 8 9 8 8 9 11 13 16 19 21 21 21 21 20 19 19 18 17 16 15 14 13 12 11 10 9 9 10 11 11 12 11 10 10 9 10 10 10 10 10 10 9 8 8 8 10 10 9 9 10
23 24 23 22 22 21 20 19 19 19 18 17 17 17 16 14 14 13 12 10 9 9 9 9 9 8 6 7 8 9 10 10 12 12 10 9 8 7 6 6 6 8 8 9 9 9 8 9 9 9 9 11 13 15 18 21 21 21 21 20 19 19 18 18 16 15 14 13 12 11 11 11 10 10 10 11 12 11 11 10 9 9 9 10 10 10 10 10 9 8 8 8 9 11 10 8 8
27 29 26 24 24 23 21 21 20 19 19 18 18 20 19 17 16 16 14 11 10 11 11 11 9 7 5 6 7 8 9 10 11 12 11 10 9 8 7 7 7 8 8 9 10 10 9 9 10 9 10 12 14 16 19 21 21 20 19 19 18 18 17 16 16 15 14 13 11 11 11 11 11 10 11 12 12 11 10 10 9 8 9 9 9 10 10 9 8 7 7 7 8 10 10 8 7
30 32 29 27 27 25 23 23 22 20 20 19 19 21 20 17 17 17 15 13 12 13 13 12 9 6 6 6 8 8 8 8 9 11 12 12 11 10 9 8 8 9 10 10 11 11 10 10 10 10 11 14 16 17 19 20 19 18 18 18 18 17 16 16 15 14 13 12 12 11 11 12 11 11 11 12 11 11 10 9 8 8 8 9 9 9 9 8 8 7 6 6 7 9 10 8 7
33 34 32 30 30 28 25 24 24 21 21 21 20 20 18 17 18 18 16 14 13 11 11 11 9 7 6 7 9 9 9 9 10 12 11 11 11 11 10 9 8 9 11 11 11 12 12 11 11 12 12 14 17 17 19 19 18 17 17 18 17 16 16 15 15 14 13 13 13 12 12 12 11 11 11 11 11 10 10 9 8 7 8 9 9 9 9 8 7 6 5 5 6 8 8 8 7
37 37 34 33 33 31 27 27 26 23 22 22 21 19 18 19 18 17 17 15 12 11 10 9 9 8 8 8 9 9 9 9 10 10 9 9 10 11 11 10 9 8 10 11 12 13 13 12 12 13 13 15 17 18 18 18 17 16 16 17 16 16 16 15 15 14 13 14 13 13 12 12 11 11 11 11 10 10 9 8 8 8 8 9 9 10 9 8 7 6 5 4 5 6 7 7 6
38 39 36 35 34 31 29 29 27 25 24 23 21 20 21 20 18 18 18 16 14 12 11 9 9 10 9 8 8 9 9 8 8 8 8 9 11 12 12 11 9 8 10 12 13 14 15 14 13 14 15 16 18 18 18 17 16 16 16 16 16 16 16 15 15 14 14 14 14 13 12 12 11 11 10 10 10 10 10 9 8 9 10 10 10 10 10 9 7 6 5 4 4 6 7 7 6
39 41 38 34 33 30 29 29 27 25 24 24 21 20 23 22 20 20 19 18 17 15 13 10 10 11 10 8 8 8 8 7 6 6 7 8 11 13 14 12 11 10 11 12 13 14 15 15 14 15 16 17 18 19 18 17 16 15 15 16 16 16 16 16 15 15 14 14 13 13 13 12 12 10 10 10 10 10 10 9 9 10 11 11 12 12 12 11 10 8 7 6 5 7 8 8 7
40 41 37 33 32 30 30 28 25 25 25 24 20 19 22 21 20 20 18 18 18 16 13 12 11 11 11 10 8 8 7 7 6 7 7 8 10 14 16 15 13 12 12 12 13 14 16 16 15 16 17 18 19 19 19 18 16 15 15 16 16 16 16 16 15 15 15 13 12 12 12 12 11 10 9 10 10 11 11 10 10 12 13 13 13 13 14 13 13 12 10 9 8 9 9 9 9
38 37 34 31 31 31 31 29 26 25 25 24 21 19 21 21 21 21 19 19 18 17 15 14 12 12 12 11 9 8 8 7 7 8 8 9 11 14 17 18 16 14 12 12 13 14 16 17 16 17 18 18 19 19 19 18 17 16 15 16 16 16 16 16 15 15 14 13 12 13 13 12 11 9 9 10 10 11 11 11 11 13 14 15 15 15 15 15 14 14 13 12 11 11 11 11 10
34 32 30 29 30 30 30 30 28 26 25 24 22 20 21 23 23 23 22 20 19 19 18 17 15 13 12 11 10 9 8 8 8 8 9 9 11 13 16 19 19 17 14 13 14 14 15 16 16 17 18 19 19 19 18 17 16 16 15 15 16 16 16 16 15 15 13 12 12 12 13 12 11 9 9 10 11 11 12 12 13 14 15 16 16 16 16 16 15 15 14 13 13 13 12 12 11
32 32 31 31 30 29 29 30 30 29 27 25 22 20 21 25 24 23 23 21 20 21 21 19 17 13 12 11 10 9 9 9 8 8 8 9 10 12 14 18 21 20 17 15 14 14 14 15 16 16 18 19 19 18 17 16 15 15 15 16 17 17 17 17 16 15 13 12 12 12 13 12 11 9 9 9 10 11 12 12 13 14 15 15 16 16 16 15 15 15 14 14 13 13 12 11 11
31 34 35 34 32 29 28 31 33 33 30 26 23 22 24 27 25 23 24 24 23 24 22 19 17 13 11 11 11 11 11 9 7 7 8 8 9 11 12 16 20 22 19 17 15 14 14 15 16 17 18 19 19 18 18 18 17 17 17 18 19 19 19 18 17 16 14 13 13 13 12 12 11 9 9 9 10 11 12 13 14 14 14 15 15 16 15 15 14 14 14 13 12 13 13 12 11
30 33 35 35 33 30 29 31 34 36 33 28 26 25 26 28 28 26 26 26 26 25 22 20 18 14 12 11 12 12 10 8 7 7 7 7 8 9 10 12 17 22 21 18 17 16 15 16 17 18 18 19 20 20 20 20 20 20 21 21 21 21 20 19 18 16 15 14 13 13 12 11 11 10 9 9 9 10 11 12 13 14 14 14 15 15 14 13 13 13 13 13 12 12 12 12 12
31 33 35 35 33 31 30 31 34 37 35 29 28 27 27 29 30 29 28 27 26 25 23 22 21 18 15 13 12 12 10 9 10 8 7 7 7 8 10 11 15 21 23 21 20 19 17 16 18 18 18 20 21 21 21 22 22 22 22 21 21 21 20 18 17 16 14 13 13 13 12 11 10 10 10 10 10 10 11 12 12 13 13 13 13 13 13 12 12 12 12 12 12 12 12 12 11
32 34 35 34 32 31 30 30 34 38 36 31 30 30 30 32 34 32 30 28 29 28 26 26 25 22 20 17 15 15 13 13 13 10 8 7 7 8 9 11 14 20 23 23 22 20 18 17 18 19 19 21 21 21 22 22 22 21 19 19 19 18 16 15 15 15 14 12 12 12 11 10 10 10 10 10 10 10 11 12 12 12 12 13 13 13 13 13 12 12 12 12 11 12 11 11 10
33 33 33 32 31 31 30 31 36 39 36 32 33 34 33 35 36 32 31 32 33 31 30 30 27 25 24 23 20 19 17 16 14 11 9 8 8 9 10 12 14 18 22 23 22 21 19 19 19 21 21 22 22 22 22 21 20 18 16 15 15 14 14 14 14 14 13 12 12 11 11 10 10 9 10 10 11 11 11 12 13 13 13 13 13 13 13 13 13 13 13 13 13 12 12 11 10
34 33 31 30 29 31 32 34 37 40 38 34 35 38 35 35 37 32 32 35 36 34 32 31 29 28 27 25 22 19 17 16 14 12 11 9 8 9 10 11 12 16 21 23 23 23 22 21 21 22 23 23 23 23 21 19 18 17 16 16 15 15 16 17 17 16 16 14 13 12 11 11 10 9 10 10 10 11 11 12 12 13 13 13 13 13 13 14 14 14 14 14 14 14 13 13 12
34 28 27 29 30 33 36 36 39 42 39 35 36 40 38 37 38 35 34 37 36 35 33 32 31 29 28 25 21 18 16 16 15 13 11 8 6 7 9 11 12 15 20 24 25 25 24 23 22 23 24 24 24 22 20 19 18 17 17 18 19 20 21 22 22 20 18 16 14 12 12 11 10 9 9 10 10 10 10 10 11 12 13 13 13 13 13 13 14 14 14 14 14 14 14 14 14
31 25 28 33 32 34 37 37 40 42 39 37 39 43 43 40 39 37 36 37 36 36 34 33 33 30 27 25 23 20 18 17 16 15 13 11 9 8 9 11 13 16 20 23 24 25 25 23 23 24 25 25 24 22 21 20 19 19 19 21 22 23 23 23 22 20 18 16 15 13 11 10 10 9 9 9 9 10 10 9 9 10 11 11 12 12 12 12 12 12 12 13 13 13 14 15 15
29 27 33 34 32 34 36 38 41 40 40 42 43 45 46 42 39 38 37 36 36 35 34 34 33 31 28 25 24 23 22 19 17 16 16 15 13 11 10 11 13 15 17 20 23 26 26 24 24 24 25 25 24 22 22 21 21 21 21 22 22 22 21 19 18 16 16 16 15 13 11 10 9 9 9 8 9 9 9 9 8 8 9 9 10 11 11 11 11 11 11 11 11 12 13 14 14
32 32 35 34 34 36 37 41 43 42 46 47 44 46 47 42 39 40 37 32 31 33 35 35 34 31 29 27 24 24 24 22 19 18 18 18 17 16 15 14 13 13 14 18 22 25 26 25 24 24 25 25 24 23 23 23 23 22 21 20 20 18 17 16 15 15 15 15 14 12 11 10 9 8 8 8 8 8 8 8 7 7 7 8 8 9 10 10 10 10 10 10 10 10 11 12 12
36 37 37 36 38 39 40 44 45 47 53 51 46 47 49 42 39 41 35 25 25 31 36 37 36 34 31 30 28 26 25 22 20 19 20 20 19 18 17 15 14 14 15 16 19 21 24 24 23 24 25 26 26 24 24 24 23 21 20 18 17 16 16 16 17 17 16 14 13 13 12 10 9 9 8 8 7 7 7 7 7 7 7 7 7 8 9 9 9 9 9 9 9 10 10 10 10
40 42 41 41 42 42 43 46 49 54 57 51 45 46 50 43 36 36 32 24 25 30 35 38 37 35 32 31 30 28 26 24 21 21 21 21 19 16 16 16 16 16 16 16 17 19 22 23 23 23 25 26 27 26 25 24 22 20 18 16 15 16 17 18 19 19 18 17 15 14 12 10 10 10 9 8 8 7 7 7 8 8 8 8 8 8 8 8 8 8 8 8 8 9 9 9 9
44 47 47 46 47 47 48 49 53 57 54 48 44 47 52 42 30 32 33 27 25 26 31 37 37 35 33 31 30 28 27 25 24 23 23 22 18 16 17 18 17 17 17 17 18 19 21 22 22 22 23 26 27 27 26 24 22 20 17 16 15 16 17 18 19 18 18 18 16 15 14 12 12 11 11 10 9 8 8 8 9 10 10 11 11 11 10 10 9 8 7 7 7 7 7 7 7
49 51 51 51 52 52 52 52 52 55 51 46 44 46 51 41 27 32 32 25 23 25 30 35 35 34 32 30 29 28 27 27 25 25 24 22 19 18 20 20 18 17 17 18 19 20 22 23 23 22 23 26 28 28 28 25 23 21 19 17 16 16 17 17 17 17 17 17 16 15 15 14 13 12 10 10 9 9 9 10 10 10 11 11 12 12 12 12 12 11 10 9 8 7 7 6 6
48 50 50 51 52 51 51 50 50 52 49 43 43 48 51 41 26 29 30 26 25 26 30 34 35 35 33 31 30 28 27 27 26 26 26 22 20 20 21 21 20 19 18 18 18 20 22 25 25 24 23 25 28 29 28 27 24 23 20 18 17 17 17 17 17 17 16 16 16 16 15 14 12 11 10 10 10 10 10 11 11 10 10 9 9 9 10 10 11 11 11 11 10 10 9 8 7
48 49 50 51 52 50 49 48 47 48 45 41 44 49 50 39 23 27 32 32 28 27 29 33 35 35 35 35 35 33 29 28 28 28 27 24 22 22 22 22 21 20 19 18 17 18 21 24 26 25 24 26 28 29 29 28 26 24 22 20 19 19 18 17 17 16 16 16 16 16 15 14 12 12 12 12 11 11 11 11 11 9 8 6 5 4 5 5 5 6 7 7 8 8 8 8 7
51 52 53 52 50 48 48 47 44 45 44 42 44 47 47 38 25 27 34 34 31 29 29 31 33 36 36 36 36 35 33 30 29 29 27 26 25 23 22 22 22 20 19 17 17 18 21 24 26 26 26 27 29 31 30 30 28 26 23 22 21 21 19 18 17 17 17 18 18 18 16 14 13 13 13 13 13 12 11 10 9 8 6 4 3 2 1 0 1 1 2 2 3 4 4 4 5
52 52 52 50 48 46 46 46 44 45 47 44 44 46 45 39 29 27 32 33 32 31 30 29 31 34 36 35 34 34 34 33 31 30 29 28 27 25 23 22 22 20 19 18 17 19 22 25 27 27 26 27 29 31 31 31 29 27 25 23 23 22 21 20 19 18 18 19 19 18 17 15 15 15 15 15 14 14 12 10 8 7 6 4 4 4 4 4 3 2 1 1 1 1 0 0 1
53 51 51 51 49 47 48 50 48 49 50 48 45 45 45 39 30 27 29 31 30 29 30 29 30 31 32 33 33 34 34 34 32 31 31 30 30 28 26 24 23 22 21 20 19 21 23 26 28 27 27 29 31 33 33 32 30 28 27 25 25 24 23 22 21 19 19 19 19 18 17 17 16 16 16 16 15 14 13 11 10 8 7 6 6 6 6 6 5 4 3 3 3 3 3 3 2
54 52 54 54 50 48 48 49 49 49 50 48 45 44 44 38 30 25 25 28 29 29 29 28 27 26 26 28 31 34 35 34 33 32 31 31 30 29 27 25 24 23 22 21 21 22 23 26 28 28 27 29 32 33 34 32 31 29 27 26 26 25 24 23 22 20 20 20 20 19 18 18 17 16 16 16 15 13 12 11 10 9 8 8 8 7 7 7 6 5 4 4 4 4 4 4 4
58 57 58 56 53 52 49 48 49 47 48 47 44 44 42 35 28 25 24 25 27 29 28 26 25 24 23 23 25 31 35 35 33 32 32 31 31 29 28 27 26 26 25 24 23 23 24 26 27 28 27 27 29 31 32 32 31 30 28 27 27 26 25 24 23 22 21 21 21 20 19 19 17 17 16 15 14 13 12 11 10 10 10 10 9 8 8 7 7 6 5 5 5 5 5 5 6
60 59 59 56 55 55 52 52 51 48 48 47 45 46 42 32 27 27 25 24 25 27 27 26 26 26 24 22 21 26 33 36 35 33 32 32 32 30 30 30 30 29 27 26 24 23 24 26 27 28 28 27 27 29 30 31 31 30 29 28 29 28 27 26 24 23 23 23 22 22 21 20 19 18 17 15 14 13 12 12 12 11 11 10 10 9 9 9 8 7 7 7 7 7 7 7 7
Wind_Direction
101 113 134 146 156 158 160 218 293 128 117 99 108 132 141 139 142 143 138 143 153 156 157 160 153 138 133 129 124 115 94 105 118 117 116 115 103 84 75 60 50 51 54 71 75 77 84 88 88 92 100 103 100 95 94 91 90 88 88 88 89 89 88 88 88 89 88 88 86 85 87 89 91 91 91 92 93 94 96 102 109 115 121 128 133 137 139 135 132 131 129 126 119 108 98 92 89
111 106 116 128 146 155 165 217 35 89 112 114 122 137 143 139 140 141 137 141 152 158 153 151 145 139 140 136 129 117 106 111 112 113 121 124 113 91 55 47 53 51 61 80 81 86 91 92 93 98 101 98 94 91 90 88 90 91 91 92 92 91 90 90 90 91 90 89 88 89 91 93 94 94 95 97 100 103 108 114 119 122 125 130 133 136 134 133 136 139 139 136 130 121 111 101 94
114 106 110 116 127 149 162 159 99 94 104 119 128 134 141 138 139 140 140 145 150 156 154 151 148 147 146 137 128 116 114 119 113 112 128 131 123 116 84 60 65 55 64 88 89 93 98 100 102 104 101 95 90 87 85 88 92 96 99 102 102 100 98 96 95 95 94 93 93 95 96 97 97 98 100 103 107 111 113 115 118 119 120 119 119 118 115 119 127 132 135 136 136 128 117 106 99
114 106 107 112 115 140 159 149 130 109 107 122 134 140 144 140 143 140 140 150 155 159 157 154 149 145 142 133 126 118 119 119 110 105 124 125 123 129 112 90 79 72 76 90 90 97 106 109 112 112 108 102 97 94 94 98 99 103 107 109 110 109 107 105 104 102 100 98 98 100 99 99 99 101 104 106 108 108 109 111 111 112 112 109 106 105 105 111 119 126 128 129 128 123 116 110 105
117 110 106 108 107 117 139 142 134 126 119 128 141 146 144 144 150 143 144 152 156 159 155 155 151 144 141 135 127 119 109 110 121 119 128 123 122 128 117 106 91 88 94 95 94 103 114 115 118 120 117 113 110 109 110 110 109 111 114 115 116 114 112 112 111 108 105 102 101 101 100 100 101 104 104 104 103 101 101 101 101 102 103 101 97 96 97 103 113 118 119 119 117 116 116 115 114
134 119 113 110 111 115 125 128 126 126 126 133 141 147 147 150 155 147 150 151 148 151 150 153 149 140 141 134 121 109 84 61 289 162 138 128 128 127 118 111 103 101 108 105 101 109 118 120 123 123 122 120 118 118 118 117 118 122 123 125 123 119 117 116 113 111 108 106 105 102 101 101 101 101 98 95 94 94 93 90 92 95 96 95 91 91 93 98 103 104 106 108 111 112 113 115 120
139 123 120 120 123 126 124 120 122 126 133 141 143 151 157 157 156 150 153 149 145 149 149 150 150 146 145 139 130 115 88 47 315 278 129 138 138 127 123 116 111 112 112 109 106 113 122 123 126 125 123 122 121 120 120 122 125 129 130 132 129 124 122 120 117 114 113 111 109 104 100 98 95 92 91 89 88 88 90 90 93 95 96 95 93 90 89 91 93 94 95 98 103 108 109 113 119
138 126 126 129 137 137 129 123 125 135 142 147 150 157 160 158 156 153 154 153 151 153 150 151 158 157 149 141 135 120 96 71 339 305 90 148 163 127 130 125 119 119 116 117 116 122 126 126 129 126 124 122 121 121 122 124 128 131 133 134 131 129 126 123 121 120 118 114 109 103 97 93 90 89 88 88 88 88 90 94 97 97 94 92 91 88 86 87 88 89 90 93 95 98 102 109 116
142 138 137 139 150 141 133 129 127 137 142 143 153 162 160 157 160 160 159 158 157 154 148 150 154 150 147 140 133 115 103 86 75 337 39 128 184 127 129 130 125 128 124 125 126 129 130 131 130 126 126 123 123 123 124 126 129 132 134 134 133 132 129 127 126 123 119 112 106 102 98 95 92 91 91 91 91 92 94 96 98 96 92 89 89 88 87 86 86 86 86 87 87 89 94 105 115
151 155 151 152 163 144 132 136 132 138 143 145 159 168 166 162 165 169 167 164 160 156 152 149 144 138 139 136 128 107 94 68 70 40 43 87 188 120 123 129 123 125 127 132 132 133 135 134 131 128 128 126 127 126 125 126 130 133 134 135 135 134 131 129 127 122 117 111 107 105 103 99 96 95 96 96 96 97 98 98 98 96 94 91 88 86 84 83 82 82 82 80 79 81 88 103 116
160 163 163 166 171 147 125 131 135 141 145 149 158 166 176 174 172 173 172 168 161 161 160 156 154 149 147 152 141 110 89 64 56 44 46 69 180 111 119 125 118 118 125 134 138 138 139 137 132 129 132 132 131 129 127 127 130 134 135 136 135 134 131 129 124 120 117 112 110 109 107 104 101 99 99 99 99 99 99 99 97 95 93 88 85 83 81 79 79 80 79 77 75 75 79 93 111
165 172 180 178 179 162 131 125 130 137 138 144 154 166 181 181 180 179 175 172 168 168 167 164 165 158 152 162 153 116 96 76 60 37 34 55 46 99 117 123 118 119 124 136 141 142 142 139 135 134 138 138 134 131 128 127 132 135 136 135 134 132 130 127 124 122 119 115 114 112 108 107 105 102 100 99 98 98 98 97 95 92 88 84 82 81 79 77 76 77 78 76 74 73 73 80 93
175 184 194 181 182 176 145 132 131 137 135 142 152 162 177 183 185 183 178 177 176 174 170 171 174 168 160 162 163 130 109 91 73 46 24 20 8 89 116 121 119 120 126 138 142 144 143 140 137 139 144 141 137 134 130 131 135 136 136 134 132 131 131 130 128 126 122 119 117 113 108 105 103 101 100 99 96 95 94 92 89 86 83 80 79 78 78 76 74 75 77 77 75 74 72 74 80
186 191 195 179 180 174 151 140 138 141 137 146 158 161 171 180 182 182 181 176 176 175 171 176 178 175 168 171 183 150 127 110 89 65 25 353 0 79 113 116 119 121 127 138 144 146 143 140 138 141 146 142 139 137 136 138 138 137 136 133 131 133 134 134 134 129 124 121 117 112 108 104 102 101 99 98 95 94 92 89 84 81 80 79 78 77 77 76 76 75 75 76 76 75 73 72 75
186 183 185 174 176 170 153 145 145 145 145 162 173 167 166 171 175 178 177 172 176 177 170 175 180 176 164 188 204 151 140 126 103 82 40 347 20 77 104 111 116 122 128 138 144 147 142 140 138 143 149 143 140 142 144 144 140 137 135 131 132 136 138 141 138 130 125 121 116 112 108 105 102 100 99 98 96 94 92 89 85 81 80 78 77 78 78 77 77 76 75 74 75 75 76 76 75
185 173 172 169 173 169 156 150 149 150 158 170 177 175 174 172 171 175 178 172 178 176 168 175 196 198 171 171 170 130 148 137 113 97 71 13 85 93 103 110 117 123 129 137 143 147 142 141 143 149 153 145 144 149 153 150 142 137 134 133 136 142 145 146 139 130 124 120 116 112 108 104 102 101 100 99 98 95 91 87 84 82 80 78 76 75 77 77 77 78 76 75 74 75 79 82 81
194 183 180 178 177 172 165 163 161 166 174 177 178 181 189 183 174 179 182 171 172 176 180 190 203 206 178 165 163 136 156 155 124 110 106 119 118 112 118 123 128 131 134 139 145 147 144 146 150 155 154 148 148 154 158 153 144 140 138 138 143 148 150 147 137 127 123 119 115 111 107 103 103 103 102 101 98 94 89 85 82 80 78 77 75 74 74 74 75 77 77 76 76 76 76 79 82
203 197 196 194 193 185 175 173 170 169 172 178 177 179 191 191 182 186 188 180 180 182 193 200 191 192 179 165 163 144 159 175 134 116 116 126 122 124 132 136 138 141 145 149 150 148 148 152 154 158 156 150 152 155 156 153 148 144 143 144 149 151 149 142 132 125 121 118 114 110 106 105 104 104 102 101 97 92 88 84 82 79 77 76 75 75 74 74 74 76 77 77 77 78 77 77 80
207 200 199 201 206 199 180 172 168 166 166 171 169 168 177 182 184 190 194 194 196 197 197 197 193 190 177 167 166 150 157 184 141 119 112 107 103 115 132 141 145 149 157 158 156 151 151 158 159 159 159 154 153 154 153 152 151 148 147 150 152 150 145 137 129 124 120 116 113 109 107 106 106 104 103 101 97 92 87 86 85 83 81 79 76 74 74 74 74 76 77 77 76 77 78 79 81
212 203 198 199 206 203 185 172 171 174 172 179 170 165 172 174 179 189 198 205 211 216 209 201 200 195 180 172 170 152 152 179 148 123 115 105 94 93 108 137 150 154 160 165 162 155 154 160 163 158 159 157 154 154 153 151 151 150 150 151 151 147 141 133 128 123 120 117 113 110 109 107 105 103 102 101 99 95 90 86 83 83 82 81 78 75 73 73 72 73 76 76 76 76 77 79 80
214 210 203 196 203 206 189 178 181 181 182 201 189 175 179 178 180 188 200 217 223 225 215 202 193 191 186 182 176 155 152 172 158 139 132 117 106 101 101 113 134 151 157 165 166 162 160 163 165 161 158 157 155 155 153 151 151 151 148 148 147 143 137 131 126 123 120 117 114 112 110 108 106 104 103 102 101 97 92 87 81 78 78 80 79 74 71 70 69 70 72 74 76 78 80 80 80
218 215 207 197 203 209 196 187 191 187 185 198 197 187 186 182 185 188 196 217 227 222 216 206 190 183 181 183 180 159 158 173 165 155 149 134 124 115 116 121 133 158 162 163 165 166 164 166 166 162 158 156 155 152 151 150 149 147 145 144 145 141 135 129 125 123 120 118 115 112 111 110 109 106 104 101 97 93 89 86 82 76 77 80 80 76 71 68 68 69 70 73 75 78 82 83 82
221 218 210 202 206 212 206 195 192 191 184 187 195 193 185 181 187 194 198 200 199 205 213 205 187 182 177 176 183 168 168 176 170 166 160 151 144 130 129 134 141 157 161 158 161 167 168 169 168 162 161 156 153 150 148 148 146 144 143 142 143 139 133 128 126 123 121 119 115 113 112 110 109 106 102 97 91 86 83 80 78 75 76 78 79 78 73 67 65 67 71 76 78 78 82 85 84
221 219 215 210 207 210 212 201 192 193 190 192 204 196 182 179 186 200 209 198 189 196 209 209 193 188 181 173 179 174 175 182 173 165 160 153 147 137 136 136 139 148 156 160 162 166 170 174 171 164 162 156 151 149 147 146 144 143 143 142 141 137 132 128 127 125 121 117 114 113 112 109 107 103 96 90 84 80 76 73 71 71 72 74 75 76 74 70 66 68 73 81 87 84 80 82 84
221 221 220 217 212 209 209 204 198 198 197 204 213 205 192 183 187 205 215 206 199 203 210 217 205 191 181 170 173 172 171 180 169 162 163 161 156 150 147 143 147 152 157 163 162 164 168 177 177 168 161 155 151 150 148 146 144 143 143 142 141 137 132 130 129 127 122 117 116 115 113 110 106 99 92 85 79 75 72 70 68 68 69 71 74 75 75 73 68 67 73 84 95 97 88 82 82
223 225 222 221 221 216 209 205 204 203 203 208 217 220 208 187 188 203 209 204 205 211 208 211 210 195 181 169 170 173 171 173 171 168 170 170 167 164 162 157 156 155 155 161 163 164 167 178 183 171 159 155 153 153 150 146 143 144 144 143 142 138 134 133 133 130 125 121 120 119 116 112 104 96 89 82 76 72 70 68 67 67 67 69 72 74 76 77 72 66 68 78 95 103 101 95 91
222 227 224 222 225 223 215 210 209 208 209 211 216 222 214 194 194 200 200 195 192 204 204 203 209 203 194 176 167 170 172 175 175 172 171 174 175 172 174 167 157 154 154 159 165 167 170 178 182 173 162 157 156 156 152 148 146 146 147 147 144 140 137 136 135 132 129 125 124 121 115 109 103 96 89 83 77 72 69 65 64 66 69 70 72 75 78 80 77 71 68 70 84 99 105 108 104
221 226 225 224 227 226 221 218 215 211 212 213 213 217 211 199 200 199 196 192 187 201 208 206 205 202 201 181 164 162 164 167 171 173 178 183 181 177 180 174 163 164 162 161 167 170 172 177 179 175 167 160 159 159 156 152 150 149 149 148 146 142 140 138 137 134 130 127 125 120 114 108 103 98 91 85 79 72 67 62 59 64 72 74 76 79 81 82 82 79 76 73 77 90 103 113 116
218 225 225 225 228 227 224 225 223 215 213 215 213 211 205 200 204 199 192 190 190 204 212 208 201 193 193 180 166 159 158 162 171 182 187 186 184 180 181 180 175 175 168 163 169 173 174 176 176 174 170 164 163 163 159 155 153 151 148 147 146 143 139 138 137 135 132 128 125 120 114 108 103 98 92 85 79 72 64 59 58 67 76 79 81 85 88 89 92 91 87 80 79 84 94 109 121
217 223 224 224 227 226 225 229 228 220 216 219 217 209 205 206 207 199 189 186 190 202 209 206 194 181 181 182 170 158 159 168 177 187 189 185 188 184 182 185 182 177 171 168 171 175 176 177 176 174 171 167 166 166 163 158 155 153 150 148 147 143 138 137 137 136 133 129 126 122 114 107 100 95 90 83 77 71 64 60 65 79 86 86 85 87 91 93 97 99 98 88 78 79 83 92 108
216 223 224 223 226 225 225 229 229 224 220 222 220 213 218 219 208 200 190 184 187 193 200 199 187 179 178 181 177 168 164 166 174 183 187 188 189 184 182 188 183 177 178 176 175 177 178 178 177 174 172 170 169 169 168 162 158 157 153 151 148 143 139 138 139 138 135 131 127 120 112 104 98 92 88 81 74 67 62 64 76 88 92 90 88 86 87 88 89 92 94 90 78 75 78 79 86
217 223 226 225 227 225 225 230 230 228 225 224 219 217 228 225 209 206 196 186 185 186 195 197 188 184 184 186 187 181 165 154 162 171 182 190 189 185 182 184 184 185 186 180 177 179 182 181 178 174 172 172 172 172 171 165 161 159 154 151 149 145 142 140 140 139 135 131 126 118 110 102 97 92 87 79 71 65 65 73 87 95 94 92 89 87 87 86 86 87 88 89 86 82 83 83 83
220 225 228 228 230 227 228 232 230 230 230 226 215 215 231 226 208 210 203 192 187 183 192 200 195 188 191 199 196 187 171 159 166 168 176 188 191 190 185 181 184 190 188 181 179 182 186 185 180 176 175 174 174 173 172 169 165 160 154 152 150 147 143 141 142 139 135 132 124 116 108 101 95 90 84 77 71 69 74 84 95 100 98 95 92 90 89 88 87 87 87 88 87 86 85 85 86
224 227 229 231 232 228 229 234 231 228 229 227 215 209 228 227 208 208 204 197 191 186 192 198 197 193 195 201 195 191 188 178 179 177 180 188 192 195 191 184 184 188 188 183 185 186 188 189 183 179 176 175 175 174 174 173 167 160 155 151 150 147 143 143 143 139 135 131 122 114 107 101 96 91 84 78 75 76 83 93 102 104 103 100 97 93 91 89 89 87 87 87 87 86 86 87 89
230 233 233 233 233 230 231 235 234 230 227 226 217 205 223 227 212 208 206 201 195 190 191 193 195 194 191 195 195 199 201 193 193 190 189 192 194 198 198 190 184 186 187 185 187 188 190 192 187 181 178 176 176 176 176 174 167 160 156 152 149 148 146 146 144 140 137 130 122 114 108 102 99 93 86 83 82 86 93 103 107 107 106 103 99 96 92 90 89 87 87 87 88 89 89 90 93
233 234 233 233 233 231 230 234 236 235 228 223 216 202 215 226 216 210 209 204 199 195 194 193 193 192 190 196 202 207 208 201 200 200 197 197 199 201 202 197 188 185 187 185 185 187 190 193 189 184 181 178 176 174 173 172 169 164 158 154 154 153 151 150 147 143 140 133 124 116 110 106 102 97 91 87 87 92 101 109 112 111 108 105 102 99 95 92 90 88 86 85 86 88 89 89 90
231 231 231 230 230 228 227 230 234 237 232 221 214 204 208 221 219 213 210 206 204 202 199 196 192 189 194 203 207 211 213 207 203 209 207 202 205 205 204 202 194 187 185 183 184 187 189 191 189 186 183 180 176 173 172 172 172 168 164 162 161 158 154 152 151 150 147 138 128 120 114 111 108 105 100 93 91 96 105 113 117 116 112 109 106 102 98 96 94 92 88 84 83 84 85 85 84
228 229 230 230 229 226 222 225 229 236 235 224 216 208 206 217 220 215 212 208 207 206 203 199 191 186 195 205 211 214 214 205 202 214 214 206 207 206 203 204 199 190 184 182 185 189 189 189 190 186 182 180 179 176 174 174 175 173 170 167 164 160 157 156 156 155 151 142 131 123 119 117 115 112 106 98 96 100 107 115 120 119 117 114 109 104 100 98 98 97 95 91 86 83 82 81 82
223 224 225 226 226 224 221 221 225 233 237 231 224 215 207 215 219 214 212 209 208 208 203 198 193 189 190 197 211 218 213 201 200 207 210 205 203 202 199 198 198 193 187 183 185 188 187 187 190 186 181 183 183 181 179 179 179 178 173 169 166 162 159 157 156 153 151 144 134 128 126 123 120 115 107 101 101 104 108 114 119 120 118 114 108 103 99 99 101 103 102 100 95 88 84 83 86
220 221 221 221 221 221 220 219 222 229 235 234 231 223 211 214 219 212 205 206 207 207 203 197 194 192 185 187 202 210 208 205 201 198 198 200 197 193 192 193 193 194 191 187 184 186 186 187 187 185 184 185 185 186 186 184 183 179 173 170 168 163 157 153 152 152 151 146 138 135 133 129 125 119 112 106 104 107 109 111 115 117 114 110 106 101 99 100 103 104 104 102 98 93 88 87 88
220 221 219 219 218 217 217 218 221 226 231 231 233 230 217 216 222 212 199 202 206 205 204 200 195 193 187 188 195 198 201 207 201 190 188 193 195 190 187 190 188 189 193 191 185 185 188 188 186 186 186 185 186 190 192 188 183 178 172 168 164 157 151 149 152 155 154 152 150 146 142 138 132 125 118 112 109 107 106 108 109 110 109 107 104 101 100 100 99 98 97 95 93 91 90 89 89
220 220 219 219 217 214 215 217 220 224 227 226 229 232 224 219 224 217 201 203 205 205 207 205 199 196 192 190 190 189 196 207 202 188 185 193 200 196 184 181 181 184 191 194 187 186 190 191 188 186 187 186 188 191 192 189 182 177 172 167 162 157 154 157 163 165 164 164 162 157 151 146 141 132 124 118 115 110 105 104 104 104 104 103 104 104 103 102 99 96 94 93 90 88 86 85 84
218 218 220 220 216 213 213 215 220 223 223 223 225 230 227 221 223 220 210 207 207 206 207 207 206 201 194 189 184 184 194 206 205 191 184 188 196 204 191 179 176 180 189 194 191 189 191 193 191 188 187 187 188 190 190 187 182 176 174 173 170 168 167 169 172 173 173 171 168 165 160 155 147 137 128 124 120 114 107 103 100 100 100 101 103 105 106 105 102 99 97 95 93 91 88 84 81
216 212 218 220 216 214 213 214 220 223 221 221 224 228 227 224 222 221 217 211 209 210 208 207 211 208 198 189 184 184 190 201 207 196 185 181 184 198 200 187 181 183 189 193 193 193 193 194 194 191 188 187 187 186 185 185 181 178 180 181 179 179 179 178 177 176 173 171 172 172 168 161 151 140 133 129 123 117 111 105 101 99 98 99 101 103 107 107 104 102 100 97 96 95 94 91 88
213 210 218 220 217 215 214 215 219 223 221 219 221 227 229 225 222 222 221 215 212 213 211 209 213 212 204 195 190 188 187 193 205 203 190 184 184 188 196 196 190 189 190 191 194 196 195 194 197 195 190 187 185 184 183 182 182 183 187 189 188 188 187 184 180 177 173 173 175 174 172 166 154 144 140 135 129 121 116 111 107 105 103 102 102 103 104 106 105 102 99 97 94 93 94 94 93
212 211 217 219 219 216 214 215 217 220 222 218 217 226 230 226 222 225 224 218 216 217 213 211 213 213 208 202 199 197 192 191 200 205 198 192 190 189 193 196 192 188 190 193 197 198 196 195 198 197 192 187 184 184 184 183 185 189 193 195 195 195 192 187 183 180 179 180 178 174 174 170 158 152 151 144 136 127 120 117 113 111 111 109 108 107 105 105 105 102 99 96 91 88 87 89 90
211 211 214 217 219 217 213 215 215 217 222 217 212 222 231 227 219 223 225 217 218 218 212 212 212 212 210 205 205 204 200 195 197 207 207 201 199 197 194 191 189 189 189 194 199 199 198 197 198 198 194 188 184 183 185 187 189 193 195 196 195 194 192 189 186 183 184 184 182 179 178 173 163 161 162 155 146 135 126 119 113 110 109 108 106 107 107 105 104 101 99 96 93 89 84 84 86
210 210 211 214 218 217 214 214 213 218 222 218 211 218 231 229 213 218 226 217 216 216 211 211 211 211 212 209 208 208 206 202 199 207 211 208 205 200 194 190 190 191 188 189 195 199 201 200 200 201 196 190 184 182 186 189 192 195 196 193 191 190 190 190 190 188 186 185 184 183 180 176 170 169 173 169 158 146 136 124 114 106 100 99 97 97 99 101 101 99 97 95 93 91 88 85 84
208 209 210 212 216 217 215 214 215 221 224 219 212 217 230 230 206 209 223 217 212 210 206 209 209 209 211 211 213 214 214 211 204 207 212 210 205 196 193 192 191 192 190 190 193 195 200 202 203 203 199 193 187 183 185 189 192 194 194 190 188 190 193 194 195 193 191 189 187 182 180 181 179 179 183 178 165 153 143 131 117 108 99 93 90 88 86 87 89 90 91 91 90 89 90 89 86
207 209 210 212 215 216 216 215 217 223 225 220 215 218 232 234 205 202 218 215 209 203 200 205 205 204 206 207 211 215 218 217 211 210 213 210 204 197 194 193 191 192 192 194 196 195 197 198 200 203 201 196 190 185 184 187 190 193 194 190 187 193 197 198 200 199 198 195 189 184 185 187 185 185 186 177 166 156 146 136 124 114 104 97 91 86 82 79 78 79 80 82 83 83 84 85 85
210 211 213 215 218 220 220 219 220 224 225 220 217 222 232 235 207 197 213 217 211 203 197 200 201 200 199 199 203 207 213 218 215 213 213 210 205 202 199 194 192 193 193 194 198 199 199 197 196 199 201 197 192 188 185 185 190 192 193 192 189 194 200 200 201 203 204 201 195 191 191 190 186 184 180 172 167 160 150 142 133 123 115 106 97 89 84 81 78 76 76 78 80 81 81 81 80
211 212 214 216 218 222 225 224 223 227 227 222 221 226 233 235 209 192 209 216 212 204 199 201 201 199 197 198 202 204 206 211 214 213 211 208 206 205 203 198 194 193 192 192 197 200 201 198 195 195 198 196 192 190 187 186 190 191 192 191 191 196 201 201 202 204 204 202 199 198 196 192 185 178 174 171 170 166 156 148 141 135 131 125 115 103 89 86 85 81 78 76 76 79 81 82 81
211 212 214 214 216 222 226 227 225 228 229 223 224 231 235 236 218 195 203 213 211 204 201 205 206 204 201 201 203 205 206 207 210 213 211 206 206 207 207 203 197 194 190 188 193 199 199 198 195 194 196 195 192 191 189 189 190 190 190 191 192 196 199 200 202 203 202 201 200 199 198 191 182 175 174 173 172 169 163 157 153 151 154 160 170 186 210 203 112 100 94 84 77 73 73 77 79
213 213 214 215 216 219 223 226 226 227 229 225 224 230 234 233 223 203 202 210 212 206 204 208 211 211 209 207 203 204 208 208 207 210 210 205 204 206 209 206 199 193 188 186 192 197 197 196 195 194 194 194 193 193 192 192 191 189 189 190 193 196 198 199 201 203 202 201 200 199 195 189 183 179 176 175 174 172 171 172 176 182 188 203 223 238 252 261 265 258 240 227 215 224 314 31 54
212 213 215 217 217 217 219 222 221 223 227 225 223 227 231 229 221 210 205 207 210 209 207 209 213 216 220 219 211 203 204 208 207 207 206 204 202 204 207 206 199 193 189 187 192 196 196 195 194 194 193 193 194 194 195 195 193 190 189 189 193 197 199 200 200 202 203 203 202 198 194 188 185 182 178 177 177 179 183 188 197 209 218 231 244 251 255 257 259 256 249 243 236 233 243 248 254
209 211 214 217 216 217 221 224 223 224 227 227 224 226 229 227 219 213 208 205 208 209 207 207 211 215 221 224 216 205 202 206 209 208 204 202 201 202 206 206 199 194 192 191 193 195 197 196 195 195 194 195 196 196 197 197 195 193 191 190 193 198 201 202 201 200 200 203 202 198 194 189 186 184 182 182 185 190 198 206 213 225 236 246 251 252 252 251 249 248 245 241 238 234 237 243 246
209 210 213 214 213 213 218 223 225 226 229 229 227 227 227 225 220 217 210 203 206 212 209 205 206 209 214 215 209 204 202 204 208 209 205 201 201 202 205 206 200 196 194 193 193 194 196 198 197 197 197 197 199 200 201 200 198 196 194 192 194 198 202 204 203 199 198 202 202 198 195 192 189 189 188 190 196 203 213 224 231 238 245 250 251 248 246 244 243 244 243 241 241 240 240 242 245
209 211 214 213 212 213 214 218 220 222 226 227 228 228 224 219 217 220 217 206 204 212 213 206 200 202 207 206 201 201 203 205 208 209 207 203 201 201 203 203 201 199 196 194 193 193 196 198 200 201 200 198 200 202 204 204 203 200 198 195 196 198 202 204 204 201 199 201 202 201 199 196 194 195 196 200 208 216 226 236 242 246 248 248 248 245 243 243 243 243 241 240 241 242 243 243 245